Fernwood, MS

8:31 AM CST on February 19, 2017 (GMT -0600)
McComb-Pike County-Lewis

Weather History for KMCB - January, 2013

Change the Weather History Date:

Monday, January 7, 2013

  Actual Average Record
Temperature  
Mean Temperature 46 °F -  
Max Temperature 57 °F 58 °F 80 °F (1989)
Min Temperature 35 °F 37 °F 14 °F (2014)
Degree Days  
Heating Degree Days 19    
Moisture  
Dew Point 36 °F    
Average Humidity 74    
Maximum Humidity 96    
Minimum Humidity 40    
Precipitation  
Precipitation 0.00 in - - ()
Sea Level Pressure  
Sea Level Pressure 30.26 in    
Wind  
Wind Speed 3 mph (NE)    
Max Wind Speed 9 mph    
Max Gust Speed -    
Visibility 9 miles    
Events      
Averages and records for this station are not official NWS values.
T = Trace of Precipitation, MM = Missing Value Source: NWS Daily Summary

Daily Weather History Graph

Daily Weather History Graph

Search for Another Location

Airport or City:

Trip Planner

Search our weather history database for the weather conditions in past years. The results will help you decide how hot, cold, wet, or windy it might be!

Date:

Astronomy

Jan. 07, 2013 Rise Set
Actual Time 7:01 AM CST 5:15 PM CST
Civil Twilight 6:34 AM CST 5:41 PM CST
Nautical Twilight 6:04 AM CST 6:11 PM CST
Astronomical Twilight 5:35 AM CST 6:41 PM CST
Moon 2:29 AM CST (1/7) 1:23 PM CST (1/7)
Length of Visible Light 11h 06m
Length of Day
10h 14m
Waning Crescent, 22% of the Moon is Illuminated
Jan 7
Waning Crescent
Jan 11
New
Jan 18
First Quarter
Jan 26
Full
Feb 3
Last Quarter

Hourly Weather History & Observations

Time (CST) Temp. Windchill Dew Point Humidity Pressure Visibility Wind Dir Wind Speed Gust Speed Precip Events Conditions
12:53 AM 39.9 °F - 37.0 °F 89% 30.30 in 10.0 mi Calm Calm - N/A   Clear
1:53 AM 39.0 °F 36.8 °F 37.0 °F 93% 30.30 in 9.0 mi NNE 3.5 mph - N/A   Clear
2:53 AM 37.9 °F 34.4 °F 36.0 °F 93% 30.29 in 7.0 mi NNE 4.6 mph - N/A   Clear
3:53 AM 37.0 °F 32.4 °F 36.0 °F 96% 30.29 in 7.0 mi North 5.8 mph - N/A   Clear
4:53 AM 37.0 °F 32.4 °F 35.1 °F 93% 30.28 in 7.0 mi NNE 5.8 mph - N/A   Clear
6:53 AM 35.1 °F 32.2 °F 34.0 °F 96% 30.31 in 8.0 mi NE 3.5 mph - N/A   Clear
7:53 AM 37.0 °F - 34.0 °F 89% 30.33 in 7.0 mi Calm Calm - N/A   Clear
9:53 AM 45.0 °F 40.1 °F 37.0 °F 74% 30.35 in 10.0 mi ENE 9.2 mph - N/A   Clear
10:53 AM 48.9 °F - 35.1 °F 59% 30.32 in 10.0 mi East 5.8 mph - N/A   Clear
11:53 AM 53.1 °F - 35.1 °F 50% 30.29 in 10.0 mi Variable 5.8 mph - N/A   Clear
1:53 PM 57.0 °F - 33.1 °F 40% 30.22 in 10.0 mi East 3.5 mph - N/A   Clear
2:53 PM 57.0 °F - 33.1 °F 40% 30.22 in 10.0 mi ENE 3.5 mph - N/A   Clear
3:53 PM 57.0 °F - 34.0 °F 42% 30.23 in 10.0 mi Calm Calm - N/A   Clear
5:53 PM 48.0 °F - 39.9 °F 74% 30.21 in 10.0 mi Calm Calm - N/A   Clear
6:53 PM 48.0 °F - 37.9 °F 68% 30.22 in 10.0 mi Calm Calm - N/A   Clear
7:53 PM 46.0 °F - 37.9 °F 73% 30.22 in 10.0 mi Calm Calm - N/A   Partly Cloudy
8:53 PM 45.0 °F - 37.9 °F 76% 30.22 in 10.0 mi Calm Calm - N/A   Clear
9:53 PM 46.0 °F - 39.9 °F 79% 30.22 in 10.0 mi Calm Calm - N/A   Overcast
10:53 PM 46.9 °F - 37.0 °F 68% 30.19 in 10.0 mi East 3.5 mph - N/A   Scattered Clouds
11:53 PM 44.1 °F - 37.9 °F 79% 30.19 in 10.0 mi Calm Calm - N/A   Partly Cloudy